Location: Newark
(39.8867°N, 94.3600°W)
Time: 11:15:59
(UTC+00:00)

N. Korean satellite - Pass Details

Date: 31 January 2020
Orbit: 456 x 505 km, 97.2° (Epoch: 19 February)

Event Time Altitude Azimuth Distance (km) Brightness Sun altitude
Rises 12:34:55 0° 2° (N) 2,563 10.1 -10.3°
Reaches altitude 10° 12:37:05 10° 353° (N) 1,686 9.1 -9.9°
Maximum altitude 12:40:24 35° 287° (WNW) 818 7.2 -9.3°
Drops below altitude 10° 12:43:45 10° 221° (SW) 1,696 9.1 -8.7°
Sets 12:45:57 0° 212° (SSW) 2,581 10.1 -8.3°
